Weather past 2 weeks in Willemstad, Curaçao

Now
86 °F

Passing clouds.


Feels Like: 97 °F
Forecast: N/A
Wind: 15 mph from East

Location: Hato Airport - Curacao

Current Time: Jul 31, 2015 at 5:35:15 PM

Latest Report: Jul 31, 2015 at 5:00 PM


Visibility: N/A

Pressure: 29.86 "Hg

Humidity: 75%

Dew point: 77 °F

Location of WillemstadLocation

Historic Weather in Willemstad — Graph

°F

Willemstad temperature yesterday

Maximum temperature yesterday: 88 °F (at 11:00 AM)
Minimum temperature yesterday: 81 °F (at 12:00 AM)
Average temperature yesterday: 84 °F

Past Weeks' High & Low Weather Summary

 TemperatureHumidityPressure
High90 °F (Jul 18, 1:00 PM)94% (Jul 17, 6:00 AM)30.07 "Hg (Jul 17, 6:00 AM)
Low77 °F (Jul 17, 5:00 AM)55% (Jul 18, 2:00 PM)29.86 "Hg (Jul 16, 5:00 PM)
Average83 °F75%29.95 "Hg
* Reported Jul 16 4:00 PM — Jul 31 4:00 PM, Willemstad, Weather by CustomWeather, © 2015

Note: Actual official high and low records may vary slightly from our data, if they occured in-between our weather recording intervals... More about our weather records

Advertising

Willemstad weather history for previous 24 hours

 ConditionsComfort  
Time TempWeatherWind HumidityBarometerVisibility
4:00 PM
Fri, Jul 31
88 °FPassing clouds.16 mph66%29.89 "HgN/A
3:00 PM88 °FScattered clouds.17 mph66%29.89 "HgN/A
2:00 PM86 °FScattered clouds.16 mph70%29.92 "HgN/A
1:00 PM90 °FScattered clouds.16 mph63%29.95 "HgN/A
12:00 PM90 °FScattered clouds.16 mph67%29.95 "HgN/A
11:00 AM86 °FScattered clouds.13 mph75%29.95 "HgN/A
10:00 AM86 °FScattered clouds.15 mph70%29.95 "HgN/A
9:00 AM84 °FPartly sunny.13 mph74%29.98 "HgN/A
8:00 AM84 °FScattered clouds.10 mph79%29.95 "HgN/A
7:00 AM81 °FScattered clouds.10 mph84%29.95 "HgN/A
6:00 AM81 °FPassing clouds.12 mph84%29.92 "HgN/A
2:00 AM82 °FPassing clouds.9 mph79%29.95 "HgN/A
1:00 AM82 °FPassing clouds.10 mph79%29.95 "HgN/A
12:00 AM82 °FPassing clouds.10 mph79%29.98 "HgN/A
10:00 PM
Thu, Jul 30
82 °FPassing clouds.10 mph79%29.95 "HgN/A
9:00 PM82 °FPassing clouds.13 mph79%29.95 "HgN/A
8:00 PM82 °FPassing clouds.12 mph84%29.92 "HgN/A
7:00 PM82 °FPassing clouds.13 mph79%29.89 "HgN/A
6:00 PM84 °FScattered clouds.10 mph74%29.89 "HgN/A
5:00 PM86 °FScattered clouds.12 mph70%29.86 "HgN/A
Weather by CustomWeather, © 2015

See weather overviewHow to use our weather pages